{"data":{"norad_id":64234,"intl_designator":"2025-119B","name":"STARLINK-11682 [DTC]","alt_names":[],"object_type":"PAYLOAD","status":"ACTIVE","operator":null,"country":"US","launch_date":"2025-06-03","launch_site_code":"AFETR","launch_vehicle":null,"mission":null,"orbit_class":"UNKNOWN","rcs_meters":null,"size_class":null,"mass_kg":null,"dimensions":null,"purposes":["comms"],"wikipedia_slug":null,"has_3d_model":false,"image_url":null,"decayed_at":null,"tle_current":{"epoch":"2026-09-20T22:04:00.789312Z","epoch_age_seconds":101444,"freshness":"FRESH","line1":"1 64234U 25119B   26263.91945358  .00110522  00000+0  84975-3 0  9996","line2":"2 64234  43.0000 112.8406 0003610 246.0713 113.9776 15.70936982 75942","mean_motion":15.70936982,"eccentricity":0.000361,"inclination_deg":43,"raan_deg":112.8406,"arg_perigee_deg":246.0713,"mean_anomaly_deg":113.9776,"bstar":0.00084975,"rev_number":7594,"period_min":91.665039177237,"perigee_km":353.7867810098,"apogee_km":358.64898523542,"semimajor_km":6734.3548831226,"source":"CELESTRAK","updated_at":"2026-09-21T09:00:35.276117Z"}}}